C/2018 U1 ( Lemmon )

Japanese version
Home page
Updated on January 23, 2020

---------------------------------------------------------------------

* Profile

Discovery Date October 27, 2018
Magnitude 20.0 mag
Discoverer R. A. Kowalski (Mount Lemmon Survey)

* Pictures

* Orbital Elements

Epoch 2021 Nov. 2.0 TT = JDT 2459520.5
T 2021 Nov. 3.07005 TT                                  Williams
q   4.9927564            (2000.0)            P               Q
z  -0.0002808      Peri.  180.46625     -0.25317073     -0.30189425
 +/-0.0000036      Node    75.48072     -0.88449046     +0.45709426
e   1.0014018      Incl.  108.29874     -0.39189438     -0.83661503
From 476 observations 2018 Oct. 27-2019 Dec. 3, mean residual 0".4.

* Finding Charts

* Magnitudes Graph

        m1 = 0.0 + 5 log d + 15.0 log r

---------------------------------------------------------------------

The orbital elements are published on M.P.E.C. 2020-A105.
The charts are made with StellaNavigator Ver.10 (AstroArts).
The magnitudes graphs are made with Comet for Windows.

---------------------------------------------------------------------

Copyright(C) Seiichi Yoshida (comet@aerith.net). All rights reserved.